SCP
-0 0 0 -0 -0 -0 -0 -0 -0 -0 -0 -0 -0 -0 -0 -0 -0 -0 -0 -0 -0 -0 -0 -0 -0 -0 0 0 0 0 0 0 -0 -0 -0 -0 0 0 0 0 0 0 0
-0 0 -0 -0 -0 -0 -0 -0 -0 -0 -0 -0 -0 -0 -0 -0 -0 -0 -0 -0 -0 -0 -0 -0 -0 -0 -0 0 0 0 0 0 0 0 0 0 -0 0 0 0 0 0 0
0 0 0 -0 -0 -0 -0 -0 -0 -0 -0 -0 -0 -0 -0 -0 -0 -0 -0 -0 -0 -0 -0 -0 -0 -0 -0 -0 -0 0 -0 -0 0 0 0 0 0 0 0 0 0 0 0
0 0 0 -0 -0 -0 -0 -0 -0 -0 -0 -0 -0 -0 -0 -0 -0 -0 -0 -0 -0 -0 -0 -0 -0 -0 -0 -0 -0 -0 -0 -0 -0 -0 0 0 0 0 0 0 0 0 0
0 0 0 0 -0 -0 -0 -0 -0 -0 -0 -0 -0 -0 -0 -0 -0 -0 -0 -0 -0 -0 -0 0 -0 -0 -0 -0 -0 -0 -0 -0 -0 -0 0 0 0 0 0 0 0 0 0
0 0 0 -0 -0 -0 -0 -0 -0 -0 -0 -0 -0 -0 -0 -0 -0 -0 -0 0 0 0 0 0 0 0 0 0 -0 -0 -0 -0 -0 0 0 0 0 0 0 -0 -0 -0 -0
0 0 0 0 0 -0 -0 -0 -0 -0 -0 -0 -0 -0 -0 -0 -0 -0 -0 0 0 0 0 0 0 0 0 -0 -0 -0 -0 -0 0 0 0 0 0 -0 -0 -0 -0 -0 -0
-0 0 0 0 0 0 0 -0 -0 -0 -0 0 -0 -0 -0 -0 0 0 0 0 0 0 0 0 0 0 -0 -0 -0 0 0 0 0 0 0 0 -0 -0 -0 -0 -0 -0 0
0 0 0 0 0 0 0 0 0 0 0 0 0 0 0 0 0 0 0 0 0 0 0 0 0 0 0 0 0 0 0 0 0 0 0 0 0 0 0 0 0 0 0
0 0 0 0 0 0 0 0 0 0 0 0 0 0 0 0 0 0 0 0 0 0 0 0 0 0 0 0 0 0 0 0 0 0 0 0 0 0 0 0 0 0 0
0 0 0 0 0 0 0 0 0 0 0 0 0 0 0 0 0 0 0 0 0 0 0 0 0 0 0 0 0 0 0 0 0 0 0 0 0 0 0 0 0 0 0
0 0 0 0 0 0 0 0 0 0 0 0 0 0 0 0 0 0 0 0 0 0 0 0 0 0 0 0 0 0 0 0 0 0 0 0 0 0 0 0 0 0 0
0 0 0 0 0 0 0 0 0 0 0 0 0 0 0 0 0 0 0 0 0 0 0 0 0 0 0 0 0 0 0 0 0 0 0 0 0 0 0 0 0 0 0
0 0 0 0 0 0 0 0 0 0 0 0 0 0 0 0 0 0 0 0 0 0 0 0 0 0 0 0 0 0 0 0 0 0 0 0 0 0 0 0 0 0 0
0 0 0 0 0 0 0 0 0 0 0 0 0 0 0 0 0 0 0 0 0 0 0 0 0 0 0 0 0 0 0 0 0 0 0 0 0 0 0 0 0 0 0
0 0 0 0 0 0 0 0 0 0 0 0 0 0 0 0 0 0 0 0 0 0 0 0 0 0 0 0 0 0 0 0 0 0 0 0 0 0 0 0 0 0 0
0 0 0 0 0 0 0 0 0 0 0 0 0 0 0 0 0 0 0 0 0 0 0 0 0 0 0 0 0 0 0 0 0 0 0 0 0 0 0 0 0 0 0
0 0 0 0 0 0 0 0 0 0 0 0 0 0 0 0 0 0 0 0 0 0 0 0 0 0 0 0 0 0 0 0 0 0 0 0 0 0 0 0 0 0 0
0 0 0 0 0 0 0 0 0 0 0 0 0 0 0 0 0 0 0 0 0 0 0 0 0 0 0 0 0 0 0 0 0 0 0 0 0 0 0 0 0 0 0
0 0 0 0 0 0 0 0 0 0 0 0 0 0 0 0 0 0 0 0 0 0 0 0 0 0 0 0 0 0 0 0 0 0 0 0 0 0 0 0 0 0 0
0 0 0 0 0 0 0 0 0 0 0 0 0 0 0 0 0 0 0 0 0 0 0 0 0 0 0 0 0 0 0 0 0 0 0 0 0 0 0 0 0 0 0
0 0 0 0 0 0 0 0 0 0 0 0 0 0 0 0 0 0 0 0 0 0 0 0 0 0 0 0 0 0 0 0 0 0 0 0 0 0 0 0 0 0 0
0 0 0 0 0 0 0 0 0 0 0 0 0 0 0 0 0 0 0 0 0 0 0 0 0 0 0 0 0 0 0 0 0 0 0 0 0 0 0 0 0 0 0
0 0 0 0 0 0 0 0 0 0 0 0 0 0 0 0 0 0 0 0 0 0 0 0 0 0 0 0 0 0 0 0 0 0 0 0 0 0 0 0 0 0 0
0 0 0 0 0 0 0 0 0 0 0 0 0 0 0 0 0 0 0 0 0 0 0 0 0 0 0 0 0 0 0 0 0 0 0 0 0 0 0 0 0 0 0
0 0 0 0 0 0 0 0 0 0 0 0 0 0 0 0 0 0 0 0 0 0 0 0 0 0 0 0 0 0 0 0 0 0 0 0 0 0 0 0 0 0 -0
Wind_Speed_500mb
41 32 24 24 29 31 29 26 23 22 23 21 19 19 17 15 13 11 11 9 7 5 7 7 6 4 5 4 5 6 7 4 4 4 3 2 3 5 4 7 11 10 9
29 34 33 28 27 31 30 26 24 25 23 24 23 22 22 21 18 17 15 12 10 9 8 8 7 6 7 8 6 5 5 3 4 4 3 3 2 5 7 6 11 12 9
31 32 33 32 29 30 27 29 28 26 25 25 26 27 24 21 18 15 15 15 15 15 16 17 14 12 12 13 11 9 8 6 4 6 5 4 3 1 3 3 6 7 9
31 35 35 36 35 35 35 34 33 31 32 27 26 21 20 20 18 16 15 15 16 18 22 20 18 17 18 19 18 16 13 10 8 9 8 7 6 4 7 8 9 9 11
34 36 38 37 37 34 33 29 33 32 30 30 23 23 21 20 19 18 18 18 19 20 19 19 19 18 18 19 19 18 18 17 15 13 13 11 11 8 7 11 13 14 13
38 40 39 38 37 36 33 33 29 32 30 25 25 22 20 19 18 16 14 16 17 17 17 17 16 15 17 18 17 15 15 16 18 19 16 14 12 10 9 12 15 14 11
40 44 41 40 38 37 36 33 33 29 25 24 23 21 19 17 16 15 15 16 15 13 9 6 4 4 5 6 8 9 11 11 15 19 18 17 17 10 9 11 13 17 15
37 44 44 43 40 38 36 34 33 28 26 25 25 23 21 19 17 16 15 13 10 7 4 2 2 3 5 6 5 4 6 8 11 14 16 19 20 22 20 13 18 17 21
40 47 46 44 42 39 37 36 32 31 28 27 25 24 22 20 18 16 15 14 12 9 4 2 4 6 8 11 12 11 9 9 11 11 13 18 21 24 26 27 27 27 24
43 49 50 47 45 43 42 40 37 35 32 30 28 25 22 21 19 19 17 14 12 9 6 4 3 6 8 10 12 13 13 13 14 14 12 14 19 24 29 30 32 32 31
50 54 55 54 51 48 46 44 42 38 36 34 32 30 26 25 22 20 18 15 13 9 7 5 6 9 12 14 15 15 15 14 15 16 17 17 18 20 24 26 27 27 26
53 55 59 60 57 54 52 51 47 45 42 40 37 35 33 31 29 25 21 18 15 12 11 11 12 14 16 18 19 20 19 19 18 20 21 21 21 21 24 25 25 26 26
54 58 59 61 62 61 60 57 54 51 47 45 43 41 38 35 32 28 26 24 20 17 14 14 15 15 16 18 20 21 21 20 20 22 24 24 23 23 23 25 25 27 30
61 62 62 63 64 65 64 63 58 56 53 50 48 45 42 38 35 33 30 26 21 19 16 14 14 15 18 21 22 23 23 23 22 22 24 24 24 26 25 24 27 27 27
68 65 66 66 67 68 69 67 65 62 59 55 54 50 47 43 41 37 34 31 27 23 21 19 18 18 19 20 22 24 25 24 24 23 23 25 25 25 25 26 24 26 27
71 70 69 71 71 72 72 72 71 67 62 62 60 56 52 49 45 41 37 34 29 27 25 23 21 20 20 21 21 20 21 24 25 24 23 23 22 21 22 24 23 20 18
76 72 75 75 76 78 77 76 76 72 69 69 65 61 57 54 51 46 42 38 33 30 28 24 23 22 23 23 23 24 24 24 25 23 19 18 16 13 11 9 7 6 9
84 83 80 81 83 83 83 80 80 79 76 74 70 66 63 59 55 50 46 43 40 36 33 30 28 27 27 25 23 23 24 25 22 18 14 5 2 4 4 4 7 9 11
82 86 85 85 86 87 87 86 85 82 81 79 75 72 69 65 61 57 53 49 45 42 38 34 31 30 30 29 26 25 25 24 19 13 8 5 11 8 7 11 12 11 12
87 87 88 87 88 88 91 92 90 86 86 83 82 80 75 70 66 61 59 56 51 47 42 37 35 33 32 30 28 26 25 23 14 11 7 13 6 13 14 11 10 17 27
93 92 92 91 91 92 98 101 99 97 94 92 89 85 81 75 70 68 65 61 56 51 46 44 39 35 33 31 29 25 22 14 13 19 16 11 6 12 11 13 23 31 34
101 101 96 92 95 98 102 101 101 99 100 95 93 91 85 81 76 73 70 66 60 57 54 48 42 38 36 30 27 27 9 20 17 16 38 13 7 20 17 27 30 31 33
90 95 94 97 95 101 105 103 104 103 100 100 100 94 92 87 81 78 74 70 65 63 59 53 48 44 38 32 27 18 10 8 13 25 15 28 18 25 30 30 27 35 34
91 81 81 81 87 99 105 109 109 109 106 103 98 95 94 91 86 82 78 75 71 67 64 57 51 48 44 37 31 28 27 29 16 12 20 23 38 34 34 34 38 37 45
62 70 75 76 83 92 100 108 109 108 105 99 95 95 95 91 88 86 83 79 77 72 66 62 58 52 47 41 35 32 30 30 32 30 41 38 43 41 37 40 44 47 44
54 56 67 76 84 89 94 106 110 107 105 99 96 96 93 92 91 89 87 84 79 75 71 66 60 56 50 45 40 38 37 35 35 35 38 52 58 55 43 43 46 45 49
Wind_Direction_500mb
187 184 184 184 178 181 186 182 180 182 174 170 170 168 176 189 194 194 198 202 204 197 214 238 248 282 342 317 317 333 2 347 356 354 1 13 2 45 26 355 9 8 13
184 181 185 175 181 190 193 181 189 186 179 183 194 202 197 198 199 207 204 205 206 223 245 256 274 283 278 283 288 307 295 307 313 315 329 306 325 27 31 352 4 355 350
179 181 184 174 176 175 177 178 189 189 192 196 199 206 203 202 202 208 217 218 216 232 249 259 262 266 264 268 271 264 258 264 262 264 247 250 282 213 134 327 30 6 330
185 186 187 189 187 186 182 181 182 184 193 190 196 199 206 218 217 215 220 229 236 245 254 269 277 274 271 270 271 267 269 265 253 250 242 225 227 209 237 258 276 307 324
190 193 193 195 199 203 205 208 200 199 197 212 216 217 221 230 237 236 236 239 244 256 268 277 282 283 280 277 276 274 266 261 254 244 245 238 242 248 270 264 272 284 288
194 196 198 198 201 205 211 216 215 214 223 226 234 237 233 231 232 239 248 254 260 263 268 277 283 285 285 288 289 285 273 261 256 252 245 243 237 253 298 308 284 279 283
200 197 201 203 205 210 217 222 226 230 225 225 228 228 228 228 231 238 244 251 255 262 268 276 293 309 313 313 319 314 299 275 254 247 244 240 236 214 232 275 296 271 273
209 204 205 207 209 213 219 221 222 223 220 214 212 216 222 227 229 226 222 219 217 219 229 257 308 319 328 333 335 327 310 298 281 263 246 239 234 234 242 254 274 278 265
209 212 214 214 215 217 220 220 219 221 221 223 223 222 221 219 214 208 199 194 192 193 203 257 320 335 339 336 335 332 322 308 292 278 260 249 246 247 252 262 270 274 276
217 216 220 222 222 222 219 217 217 221 223 223 226 225 219 213 208 203 200 194 192 189 203 228 293 321 330 334 331 328 322 312 302 294 284 268 253 254 258 261 268 272 272
220 221 222 224 224 222 222 222 220 219 223 224 223 220 218 220 221 216 212 206 207 213 237 275 315 334 342 342 337 327 317 305 292 287 282 273 265 260 262 266 272 275 277
226 225 224 225 225 225 224 223 222 223 224 224 222 220 219 218 218 217 217 219 227 243 269 296 320 331 336 338 336 332 323 310 299 291 283 271 267 263 267 270 271 274 274
239 231 231 228 227 227 227 227 225 226 226 225 222 220 220 220 219 219 219 225 234 250 268 289 304 314 322 325 325 323 319 311 301 290 283 280 275 276 272 272 274 272 271
245 241 237 234 232 231 228 229 229 228 228 227 226 225 224 223 220 219 222 231 242 254 264 275 283 296 308 316 323 323 320 316 308 299 293 287 284 281 279 278 274 279 281
247 245 241 238 237 236 232 232 229 228 229 228 226 227 225 224 224 224 228 232 240 251 261 268 279 292 302 310 316 319 320 315 308 302 294 289 285 282 281 279 279 281 284
248 247 244 241 240 239 237 234 233 230 229 228 227 227 226 224 225 228 231 236 242 247 255 261 272 282 292 303 315 321 321 316 311 304 300 295 288 280 277 275 278 278 297
257 252 247 245 242 240 239 237 235 233 230 230 230 228 227 226 227 227 231 235 241 248 255 263 271 282 290 302 311 321 329 326 316 308 299 296 297 297 298 293 295 309 286
255 252 250 245 244 242 240 239 236 233 231 232 231 230 229 228 228 229 232 234 239 246 252 259 269 279 287 293 302 314 324 325 320 303 298 259 304 332 350 309 288 304 300
261 256 251 246 245 244 241 239 237 235 234 233 231 231 230 229 229 230 232 234 237 241 247 255 263 272 282 290 301 308 315 323 309 286 221 282 305 292 295 297 297 303 327
263 258 253 250 246 242 240 238 235 234 234 233 232 232 231 230 230 231 232 232 235 239 245 251 258 268 276 285 294 304 313 316 298 236 237 298 311 299 299 303 328 323 321
266 256 251 249 247 240 236 234 231 232 232 231 230 231 231 230 230 231 232 235 237 241 246 248 254 263 272 281 292 300 308 291 287 232 326 300 335 3 346 325 324 319 321
263 259 252 248 246 243 240 238 234 233 231 233 231 230 230 230 230 232 234 236 237 239 242 245 251 258 265 274 284 297 269 287 264 229 299 283 262 340 339 327 323 325 326
268 257 252 251 250 245 240 233 231 232 232 231 229 229 229 230 231 232 234 235 236 238 242 244 247 253 259 265 273 273 275 231 218 284 233 281 251 313 323 323 328 327 328
279 267 257 252 251 244 236 232 230 232 230 234 236 233 231 230 231 233 234 235 236 238 240 243 245 249 254 258 263 267 267 268 272 253 258 256 289 302 312 320 325 334 333
281 275 265 252 243 241 238 234 231 230 233 236 235 234 234 232 233 233 234 236 236 237 239 241 243 248 252 255 258 263 261 263 268 270 285 283 288 291 310 321 326 329 333
285 265 256 249 244 240 236 232 231 231 231 232 234 234 234 233 234 235 235 235 237 238 238 240 243 245 247 250 255 263 267 268 272 271 278 291 301 303 310 316 320 327 330
Wind_Speed_850mb
41 32 24 24 29 31 29 26 23 22 23 21 19 19 17 15 13 11 11 9 7 5 7 7 6 4 5 4 5 6 7 4 4 4 3 2 3 5 4 7 11 10 9
29 34 33 28 27 31 30 26 24 25 23 24 23 22 22 21 18 17 15 12 10 9 8 8 7 6 7 8 6 5 5 3 4 4 3 3 2 5 7 6 11 12 9
31 32 33 32 29 30 27 29 28 26 25 25 26 27 24 21 18 15 15 15 15 15 16 17 14 12 12 13 11 9 8 6 4 6 5 4 3 1 3 3 6 7 9
31 35 35 36 35 35 35 34 33 31 32 27 26 21 20 20 18 16 15 15 16 18 22 20 18 17 18 19 18 16 13 10 8 9 8 7 6 4 7 8 9 9 11
34 36 38 37 37 34 33 29 33 32 30 30 23 23 21 20 19 18 18 18 19 20 19 19 19 18 18 19 19 18 18 17 15 13 13 11 11 8 7 11 13 14 13
38 40 39 38 37 36 33 33 29 32 30 25 25 22 20 19 18 16 14 16 17 17 17 17 16 15 17 18 17 15 15 16 18 19 16 14 12 10 9 12 15 14 11
40 44 41 40 38 37 36 33 33 29 25 24 23 21 19 17 16 15 15 16 15 13 9 6 4 4 5 6 8 9 11 11 15 19 18 17 17 10 9 11 13 17 15
37 44 44 43 40 38 36 34 33 28 26 25 25 23 21 19 17 16 15 13 10 7 4 2 2 3 5 6 5 4 6 8 11 14 16 19 20 22 20 13 18 17 21
40 47 46 44 42 39 37 36 32 31 28 27 25 24 22 20 18 16 15 14 12 9 4 2 4 6 8 11 12 11 9 9 11 11 13 18 21 24 26 27 27 27 24
43 49 50 47 45 43 42 40 37 35 32 30 28 25 22 21 19 19 17 14 12 9 6 4 3 6 8 10 12 13 13 13 14 14 12 14 19 24 29 30 32 32 31
50 54 55 54 51 48 46 44 42 38 36 34 32 30 26 25 22 20 18 15 13 9 7 5 6 9 12 14 15 15 15 14 15 16 17 17 18 20 24 26 27 27 26
53 55 59 60 57 54 52 51 47 45 42 40 37 35 33 31 29 25 21 18 15 12 11 11 12 14 16 18 19 20 19 19 18 20 21 21 21 21 24 25 25 26 26
54 58 59 61 62 61 60 57 54 51 47 45 43 41 38 35 32 28 26 24 20 17 14 14 15 15 16 18 20 21 21 20 20 22 24 24 23 23 23 25 25 27 30
61 62 62 63 64 65 64 63 58 56 53 50 48 45 42 38 35 33 30 26 21 19 16 14 14 15 18 21 22 23 23 23 22 22 24 24 24 26 25 24 27 27 27
68 65 66 66 67 68 69 67 65 62 59 55 54 50 47 43 41 37 34 31 27 23 21 19 18 18 19 20 22 24 25 24 24 23 23 25 25 25 25 26 24 26 27
71 70 69 71 71 72 72 72 71 67 62 62 60 56 52 49 45 41 37 34 29 27 25 23 21 20 20 21 21 20 21 24 25 24 23 23 22 21 22 24 23 20 18
76 72 75 75 76 78 77 76 76 72 69 69 65 61 57 54 51 46 42 38 33 30 28 24 23 22 23 23 23 24 24 24 25 23 19 18 16 13 11 9 7 6 9
84 83 80 81 83 83 83 80 80 79 76 74 70 66 63 59 55 50 46 43 40 36 33 30 28 27 27 25 23 23 24 25 22 18 14 5 2 4 4 4 7 9 11
82 86 85 85 86 87 87 86 85 82 81 79 75 72 69 65 61 57 53 49 45 42 38 34 31 30 30 29 26 25 25 24 19 13 8 5 11 8 7 11 12 11 12
87 87 88 87 88 88 91 92 90 86 86 83 82 80 75 70 66 61 59 56 51 47 42 37 35 33 32 30 28 26 25 23 14 11 7 13 6 13 14 11 10 17 27
93 92 92 91 91 92 98 101 99 97 94 92 89 85 81 75 70 68 65 61 56 51 46 44 39 35 33 31 29 25 22 14 13 19 16 11 6 12 11 13 23 31 34
101 101 96 92 95 98 102 101 101 99 100 95 93 91 85 81 76 73 70 66 60 57 54 48 42 38 36 30 27 27 9 20 17 16 38 13 7 20 17 27 30 31 33
90 95 94 97 95 101 105 103 104 103 100 100 100 94 92 87 81 78 74 70 65 63 59 53 48 44 38 32 27 18 10 8 13 25 15 28 18 25 30 30 27 35 34
91 81 81 81 87 99 105 109 109 109 106 103 98 95 94 91 86 82 78 75 71 67 64 57 51 48 44 37 31 28 27 29 16 12 20 23 38 34 34 34 38 37 45
62 70 75 76 83 92 100 108 109 108 105 99 95 95 95 91 88 86 83 79 77 72 66 62 58 52 47 41 35 32 30 30 32 30 41 38 43 41 37 40 44 47 44
54 56 67 76 84 89 94 106 110 107 105 99 96 96 93 92 91 89 87 84 79 75 71 66 60 56 50 45 40 38 37 35 35 35 38 52 58 55 43 43 46 45 49
Wind_Direction_850mb
187 184 184 184 178 181 186 182 180 182 174 170 170 168 176 189 194 194 198 202 204 197 214 238 248 282 342 317 317 333 2 347 356 354 1 13 2 45 26 355 9 8 13
184 181 185 175 181 190 193 181 189 186 179 183 194 202 197 198 199 207 204 205 206 223 245 256 274 283 278 283 288 307 295 307 313 315 329 306 325 27 31 352 4 355 350
179 181 184 174 176 175 177 178 189 189 192 196 199 206 203 202 202 208 217 218 216 232 249 259 262 266 264 268 271 264 258 264 262 264 247 250 282 213 134 327 30 6 330
185 186 187 189 187 186 182 181 182 184 193 190 196 199 206 218 217 215 220 229 236 245 254 269 277 274 271 270 271 267 269 265 253 250 242 225 227 209 237 258 276 307 324
190 193 193 195 199 203 205 208 200 199 197 212 216 217 221 230 237 236 236 239 244 256 268 277 282 283 280 277 276 274 266 261 254 244 245 238 242 248 270 264 272 284 288
194 196 198 198 201 205 211 216 215 214 223 226 234 237 233 231 232 239 248 254 260 263 268 277 283 285 285 288 289 285 273 261 256 252 245 243 237 253 298 308 284 279 283
200 197 201 203 205 210 217 222 226 230 225 225 228 228 228 228 231 238 244 251 255 262 268 276 293 309 313 313 319 314 299 275 254 247 244 240 236 214 232 275 296 271 273
209 204 205 207 209 213 219 221 222 223 220 214 212 216 222 227 229 226 222 219 217 219 229 257 308 319 328 333 335 327 310 298 281 263 246 239 234 234 242 254 274 278 265
209 212 214 214 215 217 220 220 219 221 221 223 223 222 221 219 214 208 199 194 192 193 203 257 320 335 339 336 335 332 322 308 292 278 260 249 246 247 252 262 270 274 276
217 216 220 222 222 222 219 217 217 221 223 223 226 225 219 213 208 203 200 194 192 189 203 228 293 321 330 334 331 328 322 312 302 294 284 268 253 254 258 261 268 272 272
220 221 222 224 224 222 222 222 220 219 223 224 223 220 218 220 221 216 212 206 207 213 237 275 315 334 342 342 337 327 317 305 292 287 282 273 265 260 262 266 272 275 277
226 225 224 225 225 225 224 223 222 223 224 224 222 220 219 218 218 217 217 219 227 243 269 296 320 331 336 338 336 332 323 310 299 291 283 271 267 263 267 270 271 274 274
239 231 231 228 227 227 227 227 225 226 226 225 222 220 220 220 219 219 219 225 234 250 268 289 304 314 322 325 325 323 319 311 301 290 283 280 275 276 272 272 274 272 271
245 241 237 234 232 231 228 229 229 228 228 227 226 225 224 223 220 219 222 231 242 254 264 275 283 296 308 316 323 323 320 316 308 299 293 287 284 281 279 278 274 279 281
247 245 241 238 237 236 232 232 229 228 229 228 226 227 225 224 224 224 228 232 240 251 261 268 279 292 302 310 316 319 320 315 308 302 294 289 285 282 281 279 279 281 284
248 247 244 241 240 239 237 234 233 230 229 228 227 227 226 224 225 228 231 236 242 247 255 261 272 282 292 303 315 321 321 316 311 304 300 295 288 280 277 275 278 278 297
257 252 247 245 242 240 239 237 235 233 230 230 230 228 227 226 227 227 231 235 241 248 255 263 271 282 290 302 311 321 329 326 316 308 299 296 297 297 298 293 295 309 286
255 252 250 245 244 242 240 239 236 233 231 232 231 230 229 228 228 229 232 234 239 246 252 259 269 279 287 293 302 314 324 325 320 303 298 259 304 332 350 309 288 304 300
261 256 251 246 245 244 241 239 237 235 234 233 231 231 230 229 229 230 232 234 237 241 247 255 263 272 282 290 301 308 315 323 309 286 221 282 305 292 295 297 297 303 327
263 258 253 250 246 242 240 238 235 234 234 233 232 232 231 230 230 231 232 232 235 239 245 251 258 268 276 285 294 304 313 316 298 236 237 298 311 299 299 303 328 323 321
266 256 251 249 247 240 236 234 231 232 232 231 230 231 231 230 230 231 232 235 237 241 246 248 254 263 272 281 292 300 308 291 287 232 326 300 335 3 346 325 324 319 321
263 259 252 248 246 243 240 238 234 233 231 233 231 230 230 230 230 232 234 236 237 239 242 245 251 258 265 274 284 297 269 287 264 229 299 283 262 340 339 327 323 325 326
268 257 252 251 250 245 240 233 231 232 232 231 229 229 229 230 231 232 234 235 236 238 242 244 247 253 259 265 273 273 275 231 218 284 233 281 251 313 323 323 328 327 328
279 267 257 252 251 244 236 232 230 232 230 234 236 233 231 230 231 233 234 235 236 238 240 243 245 249 254 258 263 267 267 268 272 253 258 256 289 302 312 320 325 334 333
281 275 265 252 243 241 238 234 231 230 233 236 235 234 234 232 233 233 234 236 236 237 239 241 243 248 252 255 258 263 261 263 268 270 285 283 288 291 310 321 326 329 333
285 265 256 249 244 240 236 232 231 231 231 232 234 234 234 233 234 235 235 235 237 238 238 240 243 245 247 250 255 263 267 268 272 271 278 291 301 303 310 316 320 327 330